This demonstration page uses our WeatherBlox Daily Observations layout. Learn more.

Left ArrowRight Arrow

40.92945, -100.16068

Hourly Observations for October 22, 2016

Temp ( °F °C ) Dew Point ( °F °C ) Humidity (%) Winds ( mph kmh ) Pressure ( in mb ) Visibility ( mi km ) Precip ( " mm )
12:15 am 00:15 Clear 39 3.8 32 0.1 77 77 N N/A 30.12 1020 10 16 N/A
12:35 am 00:35 Clear 39 3.8 32 0.1 77 77 N N/A 30.12 1020 10 16 N/A
12:55 am 00:55 Clear 38 3.3 32 0.2 80 80 WNW 3 6 30.12 1020 10 16 N/A
1:15 am 01:15 Clear 37 2.5 32 undefined 84 84 WSW 5 7 30.12 1020 10 16 N/A
1:35 am 01:35 Clear 37 2.7 33 0.3 84 84 W 3 6 30.12 1020 10 16 N/A
1:55 am 01:55 Clear 37 3 32 0.2 82 82 WNW 3 6 30.12 1020 10 16 N/A
2:15 am 02:15 Clear 37 2.6 32 undefined 83 83 NW 3 6 30.12 1020 7 11 N/A
2:35 am 02:35 Clear 37 2.5 32 undefined 84 84 NNW 3 6 30.12 1020 10 16 N/A
2:55 am 02:55 Clear 35 1.7 31 -0.5 86 86 WNW 3 6 30.12 1020 10 16 N/A
3:15 am 03:15 Clear 36 2.1 32 -0.1 86 86 NNW 3 6 30.12 1020 10 16 N/A
3:35 am 03:35 Clear 36 2 31 -0.3 85 85 NNW 5 7 30.12 1020 10 16 N/A
3:55 am 03:55 Clear 35 1.9 31 -0.5 84 84 N 3 6 30.12 1020 10 16 N/A
4:15 am 04:15 Clear 36 2 31 -0.6 83 83 N N/A 30.12 1020 10 16 N/A
4:35 am 04:35 Clear 35 1.5 31 -0.8 85 85 N N/A 30.12 1020 10 16 N/A
4:55 am 04:55 Clear 35 1.5 31 -0.7 85 85 NNE 3 6 30.12 1020 10 16 N/A
5:15 am 05:15 Clear 34 1.1 30 -1 86 86 N N/A 30.12 1020 10 16 N/A
5:35 am 05:35 Clear 34 1 30 -1 87 87 W 7 11 30.12 1020 10 16 N/A
5:55 am 05:55 Clear 34 1.2 31 -0.8 87 87 WSW 5 7 30.12 1020 10 16 N/A
6:15 am 06:15 Clear 34 1 30 -0.9 87 87 N N/A 30.12 1020 10 16 N/A
6:35 am 06:35 Clear 34 1.1 31 -0.7 88 88 N N/A 30.12 1020 10 16 N/A
6:55 am 06:55 Clear 34 1 31 -0.7 89 89 N N/A 30.12 1020 10 16 N/A
7:15 am 07:15 Clear 33 0.6 31 -0.8 90 90 N N/A 30.15 1021 10 16 N/A
7:35 am 07:35 Clear 33 0.7 31 -0.7 90 90 N N/A 30.15 1021 10 16 N/A
7:55 am 07:55 Clear 32 0.2 30 -1.2 90 90 N N/A 30.15 1021 10 16 N/A
8:15 am 08:15 Sunny 32 -0.1 29 -1.8 88 88 N N/A 30.15 1021 10 16 N/A
8:35 am 08:35 Sunny 33 0.6 30 -1.2 88 88 N N/A 30.15 1021 10 16 N/A
8:55 am 08:55 Sunny with Mist and Fog 36 2.1 33 0.4 89 89 E 5 7 30.09 1019 4 6 N/A
9:15 am 09:15 Sunny 40 4.4 35 1.6 82 82 N N/A 30.06 1018 10 16 N/A
9:35 am 09:35 Sunny 46 7.8 37 2.8 71 71 N N/A 30.03 1017 10 16 N/A
9:55 am 09:55 Sunny 51 10.3 35 1.8 56 56 ESE 5 7 30.00 1016 10 16 N/A
10:15 am 10:15 Sunny 54 12.4 36 2.1 50 50 ESE 5 7 30.00 1016 10 16 N/A
10:35 am 10:35 Sunny 58 14.5 35 1.8 42 42 SE 3 6 29.97 1015 10 16 N/A
10:55 am 10:55 Sunny 61 16.3 36 2.1 39 39 ESE 7 11 29.97 1015 10 16 N/A
11:15 am 11:15 Sunny 65 18.3 35 1.8 33 33 SE 10 17 29.91 1013 10 16 N/A
11:35 am 11:35 Sunny 69 20.3 36 2.3 30 30 SSE 13 20 29.88 1012 10 16 N/A
11:55 am 11:55 Sunny 73 22.6 32 undefined 22 22 SSE 15 24 29.88 1012 10 16 N/A
12:15 pm 12:15 Sunny 74 23.4 31 -0.3 21 21 SSE 17 28 29.83 1010 10 16 N/A
12:35 pm 12:35 Sunny 75 24.1 30 -0.9 19 19 SSE 16 26 29.83 1010 10 16 N/A
12:55 pm 12:55 Sunny 76 24.4 30 -1.1 18 18 S 16 26 29.83 1010 10 16 N/A
1:15 pm 13:15 Sunny 77 24.9 30 -1.2 18 18 SSE 15 24 29.83 1010 10 16 N/A
1:35 pm 13:35 Sunny 78 25.4 31 -0.7 18 18 S 16 26 29.80 1009 10 16 N/A
1:55 pm 13:55 Sunny 77 24.9 32 -0.2 19 19 S 16 26 29.80 1009 10 16 N/A
2:15 pm 14:15 Sunny 78 25.4 32 -0.1 19 19 S 22 35 29.77 1008 10 16 N/A
2:35 pm 14:35 Sunny 78 25.8 31 -0.4 18 18 SSE 20 31 29.74 1007 10 16 N/A
2:55 pm 14:55 Sunny 79 25.9 32 undefined 18 18 S 14 22 29.74 1007 10 16 N/A
3:15 pm 15:15 Sunny 78 25.7 33 0.5 19 19 S 17 28 29.74 1007 10 16 N/A
3:35 pm 15:35 Sunny 79 26.1 33 0.8 19 19 S 16 26 29.71 1006 10 16 N/A
3:55 pm 15:55 Sunny 80 26.5 33 0.5 18 18 S 17 28 29.71 1006 10 16 N/A
4:15 pm 16:15 Sunny 80 26.8 32 0.1 17 17 S 20 31 29.68 1005 10 16 N/A
4:35 pm 16:35 Sunny 80 26.7 33 0.5 18 18 S 15 24 29.71 1006 10 16 N/A
4:55 pm 16:55 Sunny 80 26.6 33 0.7 18 18 S 17 28 29.68 1005 10 16 N/A
5:15 pm 17:15 Sunny 80 26.5 34 1.3 19 19 SSE 12 19 29.68 1005 10 16 N/A
5:35 pm 17:35 Sunny 79 26.1 35 1.8 21 21 S 13 20 29.68 1005 10 16 N/A
5:55 pm 17:55 Sunny 78 25.4 36 2.1 22 22 S 9 15 29.68 1005 10 16 N/A
6:15 pm 18:15 Sunny 74 23.5 37 2.9 26 26 SSE 8 13 29.71 1006 10 16 N/A
6:35 pm 18:35 Sunny 71 21.5 37 2.8 29 29 SSE 8 13 29.71 1006 10 16 N/A
6:55 pm 18:55 Clear 69 20.4 36 2.1 30 30 SE 7 11 29.77 1008 10 16 N/A
7:15 pm 19:15 Clear 68 19.9 36 2.2 31 31 SE 7 11 29.77 1008 10 16 N/A
7:35 pm 19:35 Clear 65 18.3 36 2.2 34 34 SE 7 11 29.80 1009 10 16 N/A
7:55 pm 19:55 Clear 65 18.1 37 2.5 35 35 SE 6 9 29.80 1009 10 16 N/A
8:15 pm 20:15 Clear 63 17.3 37 2.6 38 38 SE 6 9 29.80 1009 10 16 N/A
8:35 pm 20:35 Clear 62 16.6 37 2.9 40 40 ESE 5 7 29.80 1009 10 16 N/A
8:55 pm 20:55 Clear 57 14 37 3 48 48 E 7 11 29.83 1010 10 16 N/A
9:15 pm 21:15 Clear 55 12.7 37 3 52 52 ENE 6 9 29.83 1010 10 16 N/A
9:35 pm 21:35 Clear 50 10.2 37 3 61 61 ESE 7 11 29.85 1011 10 16 N/A
9:55 pm 21:55 Clear 54 12 38 3.2 55 55 E 6 9 29.85 1011 10 16 N/A
10:15 pm 22:15 Clear 52 11.1 38 3.1 58 58 ESE 6 9 29.88 1012 10 16 N/A
10:35 pm 22:35 Clear 55 12.5 38 3.1 53 53 N N/A 29.85 1011 10 16 N/A
10:55 pm 22:55 Clear 50 10.1 37 3 62 62 N N/A 29.88 1012 10 16 N/A
11:15 pm 23:15 Clear 49 9.2 37 2.7 64 64 N N/A 29.88 1012 10 16 N/A
11:35 pm 23:35 Clear 47 8.3 37 2.7 68 68 N N/A 29.91 1013 10 16 N/A
11:55 pm 23:55 Clear 46 7.5 36 2.4 70 70 N N/A 29.91 1013 10 16 N/A

Powered by AerisWeather